Погода в Заручейном

Россия / Республика Коми     62°05′07″N   49°21′38″E
темп.,
°C
ветер,
м/с
пор.,
м/с
влажн.,
%
обл.,
%
осадки,
мм/ч
давл.,
гПа
погр.,
м
1 августа, вс
вс100:00+13юз3109820 0.7 998304
03:00+12зюз399888 0.7 999279
06:00+13зюз3795100 0.2 1000349
09:00+15з3685100 0.3 1002697
12:00+18з3565100 0.1 10031179
15:00+22з464952 0.1 10041955
18:00+19юз3965100 0.0 1006350
21:00+16юз267786 0.0 1006159
2 августа, пн
пн200:00+13юз269597 0.0 1007118
03:00+15ююз31188100 0.1 1006397
06:00+15ююз2698100 1.1 1007266
09:00+18юз358598 1.1 1007622
12:00+18зюз3686100 0.2 1007594
15:00+22з365578 0.3 10071442
18:00+19зюз246896 0.0 100895
21:00+18ююз2274100 0.0 100847
3 августа, вт
вт300:00+17ююз267876 0.0 1008132
03:00+14ююв25925 0.0 100897
06:00+17юв31077100 0.0 1008310
09:00+19юв41182100 0.2 1006529
12:00+26ююв585876 0.1 10041086
15:00+25ююз287596 0.8 1002645
18:00+25юз3869100 0.3 1000442
21:00+18юз3119664 11.1 1002270
4 августа, ср
ср400:00+17ююз289923 0.0 1004231
03:00+16юз249942 0.0 1004111
06:00+17з249621 0.3 1006266
09:00+20зсз236858 0.3 1007719
12:00+22з2359100 0.0 10071046
15:00+23зсз2454100 0.0 1008696
18:00+20з3769100 0.0 1009365
21:00+18зсз3970100 0.0 1010388
5 августа, чт
чт500:00+16зсз3975100 0.0 1011444
03:00+13зсз378511 0.0 1013259
06:00+13сз478552 0.0 1014403
09:00+16сз356569 0.0 10151060
12:00+17ссз4455100 0.1 10151398
15:00+16сз3464100 0.1 10161031
18:00+14сз3775100 0.3 1017476
21:00+12сз2773100 0.3 1017413